Content
SEND FEEDBACK

Daily
Averages
Monthly
Summary
United States of America

ASHEVILLE, NORTH CAROLINA


Home > North America > United States > North Carolina
Elevation: 2240 feet     Latitude: 35 36N     Longitude: 082 32W

WEATHER
 
SELECT A DAY
Number of Records: 230,271;   Date Range: 1/1/95 - 11/22/14
 
SHARE

PRINT THIS DATA

[ ← Previous Day ]
WEATHER ALMANAC - OCTOBER 9, 2013
[ Next Day → ]
[ °C ]   °F
Weather ElementAverageHighLow
Temperature52.3 °F72 °F (3:54 pm)44.6 °F (7:02 am)
Dewpoint46 °F51.1 °F (3:54 pm)41 °F (11:54 am)
Humidity82.7 %100 % (2:50 am)42 % (12:54 pm)
Barometer30.20 in30.25 in (8:54 am)30.12 in (3:54 pm)
Wind Speed1.5 mph6.9 mph (5:54 pm)
Weather ElementAverage
Visibility6.9 mi
Wind DirectionENE (67.3 °)

Weather ElementTotal
Precipitation---
Heating Degree Days6.7 (Base 65)
Growing Degree Days8.3 (Base 50)
Averaged from 37 records on October 9, 2013
WEATHER CONDITIONS BREAKOUT
WIND DIRECTION BREAKOUT
WEATHER BY HOUR - OCTOBER 9, 2013
[ °C ]   °F
Local TimeTemperatureDewpointHumidityBarometerVisibilityWind DirectionWind SpeedGust SpeedPrecipitationEventsConditions
1:54 AM48.9 °F46.9 °F93 %30.19 in10.0 miCalm
2:50 AM46.4 °F46.4 °F100 %30.23 in4.0 miCalmMist
2:54 AM46.9 °F46.0 °F97 %30.20 in8.0 miCalm
3:54 AM46.9 °F45.0 °F93 %30.20 in10.0 miCalm
4:34 AM46.4 °F44.6 °F93 %30.23 in1.2 miCalmMist
4:46 AM46.4 °F44.6 °F93 %30.23 in2.0 miCalmMist
4:50 AM46.4 °F44.6 °F93 %30.23 in5.0 miCalmMist
4:54 AM45.0 °F45.0 °F100 %30.20 in1.2 miCalmMist
5:01 AM46.4 °F44.6 °F93 %30.24 in1.0 miCalmMist
5:04 AM46.4 °F44.6 °F93 %30.24 in3.0 miCalmMist
5:50 AM46.4 °F44.6 °F93 %30.24 in1.2 miCalmMist
5:54 AM46.0 °F45.0 °F96 %30.21 in0.5 miCalmFogFog
6:14 AM46.4 °F44.6 °F93 %30.24 in1.5 miCalmMist
6:17 AM46.4 °F44.6 °F93 %30.24 in3.0 miCalmMist
6:54 AM45.0 °F44.1 °F97 %30.22 in10.0 miCalmClear
7:02 AM44.6 °F44.6 °F100 %30.24 in2.5 miSW (230°)3.5 mphPartly Cloudy
7:04 AM44.6 °F44.6 °F100 %30.24 in1.0 miCalmMist
7:09 AM44.6 °F44.6 °F100 %30.24 in0.2 miCalmFogFog
7:19 AM44.6 °F44.6 °F100 %30.24 in10.0 miCalmClear
7:54 AM45.0 °F44.1 °F97 %30.23 in10.0 miNNW (330°)4.6 mphClear
8:01 AM44.6 °F44.6 °F100 %30.24 in10.0 miNW (320°)4.6 mphPartly Cloudy
8:54 AM48.0 °F46.0 °F93 %30.25 in10.0 miNNW (340°)5.8 mphClear
9:54 AM55.0 °F46.9 °F74 %30.24 in10.0 miNNW (340°)4.6 mphScattered Clouds
10:54 AM59.0 °F44.1 °F58 %30.24 in10.0 miNW (320°)3.5 mphScattered Clouds
11:54 AM63.0 °F41.0 °F45 %30.22 in10.0 miVariable3.5 mphClear
12:54 PM66.0 °F42.1 °F42 %30.20 in10.0 miCalmClear
1:54 PM68.0 °F46.0 °F45 %30.16 in10.0 miNorth (10°)4.6 mphClear
2:54 PM69.1 °F46.0 °F44 %30.14 in10.0 miCalmClear
3:54 PM72.0 °F51.1 °F48 %30.12 in10.0 miVariable5.8 mphClear
4:54 PM71.1 °F48.9 °F45 %30.12 in10.0 miCalmClear
5:54 PM66.9 °F46.9 °F49 %30.13 in10.0 miSSE (160°)6.9 mphClear
6:54 PM64.0 °F48.0 °F56 %30.14 in10.0 miSSW (200°)3.5 mphClear
7:54 PM57.9 °F51.1 °F78 %30.16 in10.0 miWSW (240°)3.5 mphClear
8:54 PM55.0 °F51.1 °F86 %30.17 in10.0 miCalmClear
9:54 PM54.0 °F51.1 °F90 %30.17 in10.0 miCalmClear
10:54 PM52.0 °F50.0 °F93 %30.17 in10.0 miCalmClear
11:54 PM50.0 °F48.9 °F96 %30.16 in10.0 miCalmClear
Hourly data recorded from KAVL, located miles away from Asheville, North Carolina







STORIES FROM OUR PARTNERS